Meteo pe oră la Dabrowa

Astăzi, 12 Aprilie, Luni

Timp Temperatura Precipitaţii Vânt Presiune Umiditate
00:00 +10°C° 0 mm 4 m/s 745 mmHg 71%
01:00 +8°C° 0 mm 4 m/s 745 mmHg 75%
02:00 +7°C° 0 mm 4 m/s 745 mmHg 77%
03:00 +8°C° 0 mm 3 m/s 745 mmHg 80%
04:00 +8°C° 0 mm 3 m/s 745 mmHg 83%
05:00 +8°C° 0 mm 3 m/s 745 mmHg 82%
06:00 +8°C° 0 mm 3 m/s 745 mmHg 80%
07:00 +8°C° 0 mm 4 m/s 746 mmHg 79%
08:00 +8°C° 0 mm 4 m/s 746 mmHg 81%
09:00 +8°C° 0 mm 4 m/s 746 mmHg 83%
10:00 +7°C° 0 mm 5 m/s 747 mmHg 85%
11:00 +7°C° 0.1 mm 5 m/s 747 mmHg 85%
12:00 +6°C° 0.1 mm 5 m/s 748 mmHg 85%
13:00 +4°C° 0.1 mm 6 m/s 748 mmHg 86%
14:00 +4°C° 0.1 mm 6 m/s 748 mmHg 88%
15:00 +3°C° 0.1 mm 6 m/s 748 mmHg 89%
16:00 +2°C° 0.1 mm 6 m/s 748 mmHg 91%
17:00 +2°C° 0.1 mm 5 m/s 749 mmHg 92%
18:00 +1°C° 0.1 mm 5 m/s 750 mmHg 94%
19:00 +1°C° 0.1 mm 4 m/s 750 mmHg 95%
20:00 +1°C° 0.1 mm 4 m/s 750 mmHg 96%
21:00 +1°C° 0.1 mm 4 m/s 750 mmHg 96%
22:00 +1°C° 0.1 mm 4 m/s 750 mmHg 96%
23:00 +1°C° 0.1 mm 4 m/s 751 mmHg 94%

Mâine, 13 Aprilie, Marţi

Timp Temperatura Precipitaţii Vânt Presiune Umiditate
00:00 +1°C° 0.1 mm 4 m/s 751 mmHg 92%
01:00 +1°C° 0.1 mm 4 m/s 751 mmHg 90%
02:00 +1°C° 0.5 mm 4 m/s 751 mmHg 90%
03:00 +1°C° 0.5 mm 3 m/s 752 mmHg 91%
04:00 +1°C° 0.5 mm 3 m/s 752 mmHg 91%
05:00 +2°C° 0.1 mm 3 m/s 752 mmHg 87%
06:00 +1°C° 0.1 mm 4 m/s 752 mmHg 82%
07:00 +1°C° 0.1 mm 4 m/s 752 mmHg 78%
08:00 +2°C° 0 mm 5 m/s 752 mmHg 71%
09:00 +3°C° 0 mm 5 m/s 752 mmHg 63%
10:00 +5°C° 0 mm 5 m/s 753 mmHg 56%
11:00 +5°C° 0 mm 5 m/s 752 mmHg 55%
12:00 +5°C° 0 mm 5 m/s 752 mmHg 54%
13:00 +6°C° 0 mm 5 m/s 752 mmHg 53%
14:00 +5°C° 0 mm 5 m/s 752 mmHg 55%
15:00 +5°C° 0 mm 4 m/s 752 mmHg 57%
16:00 +5°C° 0 mm 4 m/s 752 mmHg 60%
17:00 +5°C° 0.1 mm 3 m/s 752 mmHg 59%
18:00 +4°C° 0.1 mm 3 m/s 752 mmHg 59%
19:00 +5°C° 0.1 mm 2 m/s 752 mmHg 59%
20:00 +5°C° 0 mm 2 m/s 752 mmHg 59%
21:00 +4°C° 0 mm 2 m/s 752 mmHg 59%
22:00 +4°C° 0 mm 2 m/s 752 mmHg 60%
23:00 +4°C° 0 mm 2 m/s 751 mmHg 61%

Poimâine, 14 Aprilie, Miercuri

Timp Temperatura Precipitaţii Vânt Presiune Umiditate
00:00 +3°C° 0 mm 3 m/s 751 mmHg 63%
01:00 +3°C° 0 mm 3 m/s 751 mmHg 64%
02:00 +3°C° 0 mm 3 m/s 751 mmHg 69%
03:00 +3°C° 0 mm 2 m/s 751 mmHg 74%
04:00 +3°C° 0 mm 2 m/s 751 mmHg 79%
05:00 +3°C° 0.1 mm 2 m/s 751 mmHg 79%
06:00 +2°C° 0.1 mm 3 m/s 751 mmHg 78%
07:00 +2°C° 0.1 mm 3 m/s 751 mmHg 78%
08:00 +3°C° 0 mm 4 m/s 751 mmHg 70%
09:00 +3°C° 0 mm 5 m/s 751 mmHg 62%
10:00 +4°C° 0 mm 6 m/s 750 mmHg 55%
11:00 +4°C° 0 mm 6 m/s 750 mmHg 55%
12:00 +4°C° 0 mm 6 m/s 750 mmHg 55%
13:00 +4°C° 0 mm 6 m/s 750 mmHg 55%
14:00 +4°C° 0.1 mm 6 m/s 750 mmHg 61%
15:00 +5°C° 0.1 mm 5 m/s 750 mmHg 68%
16:00 +3°C° 0.1 mm 5 m/s 749 mmHg 75%
17:00 +3°C° 0.2 mm 5 m/s 750 mmHg 81%
18:00 +3°C° 0.2 mm 4 m/s 750 mmHg 86%
19:00 +1°C° 0.2 mm 4 m/s 750 mmHg 91%
20:00 +1°C° 0.1 mm 5 m/s 750 mmHg 88%
21:00 +1°C° 0.1 mm 5 m/s 750 mmHg 85%
22:00 +1°C° 0.1 mm 6 m/s 749 mmHg 82%
23:00 +1°C° 0.1 mm 5 m/s 749 mmHg 84%

15 Aprilie, Joi

Timp Temperatura Precipitaţii Vânt Presiune Umiditate
00:00 0°C° 0.1 mm 5 m/s 749 mmHg 86%
01:00 0°C° 0.1 mm 5 m/s 749 mmHg 88%
02:00 0°C° 0.2 mm 5 m/s 749 mmHg 91%
03:00 -1°C° 0.2 mm 5 m/s 749 mmHg 94%
04:00 -1°C° 0.2 mm 5 m/s 749 mmHg 97%
05:00 -2°C° 0.4 mm 6 m/s 749 mmHg 97%
06:00 -2°C° 0.4 mm 6 m/s 749 mmHg 97%
07:00 -2°C° 0.4 mm 6 m/s 749 mmHg 96%
08:00 -2°C° 0.8 mm 6 m/s 749 mmHg 97%
09:00 -2°C° 0.8 mm 6 m/s 749 mmHg 97%
10:00 -1°C° 0.8 mm 5 m/s 749 mmHg 98%
11:00 -1°C° 1 mm 5 m/s 749 mmHg 98%
12:00 -1°C° 1 mm 5 m/s 749 mmHg 98%
13:00 -1°C° 1 mm 4 m/s 749 mmHg 99%
14:00 -1°C° 0.7 mm 4 m/s 749 mmHg 99%
15:00 -1°C° 0.7 mm 4 m/s 749 mmHg 99%
16:00 -1°C° 0.7 mm 4 m/s 749 mmHg 99%
17:00 0°C° 0.5 mm 4 m/s 749 mmHg 99%
18:00 0°C° 0.5 mm 4 m/s 749 mmHg 99%
19:00 0°C° 0.5 mm 4 m/s 750 mmHg 99%
20:00 0°C° 0.2 mm 4 m/s 750 mmHg 99%
21:00 0°C° 0.2 mm 4 m/s 750 mmHg 99%
22:00 0°C° 0.2 mm 4 m/s 750 mmHg 99%
23:00 +1°C° 0.3 mm 3 m/s 750 mmHg 99%

16 Aprilie, Vineri

Timp Temperatura Precipitaţii Vânt Presiune Umiditate
00:00 +1°C° 0.3 mm 3 m/s 750 mmHg 99%
01:00 +2°C° 0.3 mm 3 m/s 750 mmHg 99%
02:00 +2°C° 0.1 mm 3 m/s 750 mmHg 98%
03:00 +1°C° 0.1 mm 3 m/s 750 mmHg 96%
04:00 0°C° 0.1 mm 4 m/s 750 mmHg 95%
05:00 0°C° 0 mm 4 m/s 750 mmHg 96%
06:00 0°C° 0 mm 4 m/s 751 mmHg 96%
07:00 +1°C° 0 mm 3 m/s 751 mmHg 97%
08:00 +2°C° 0 mm 3 m/s 751 mmHg 96%
09:00 +2°C° 0 mm 3 m/s 751 mmHg 95%
10:00 +2°C° 0 mm 3 m/s 751 mmHg 95%
11:00 +2°C° 0 mm 3 m/s 752 mmHg 95%
12:00 +3°C° 0 mm 3 m/s 752 mmHg 95%
13:00 +3°C° 0 mm 3 m/s 752 mmHg 95%
14:00 +3°C° 0 mm 3 m/s 752 mmHg 95%
15:00 +3°C° 0 mm 2 m/s 752 mmHg 95%
16:00 +3°C° 0 mm 2 m/s 752 mmHg 95%
17:00 +3°C° 0 mm 2 m/s 753 mmHg 96%
18:00 +3°C° 0 mm 2 m/s 753 mmHg 97%
19:00 +3°C° 0 mm 2 m/s 753 mmHg 98%
20:00 +3°C° 0 mm 2 m/s 753 mmHg 98%
21:00 +3°C° 0 mm 2 m/s 753 mmHg 98%
22:00 +3°C° 0 mm 2 m/s 754 mmHg 98%
23:00 +4°C° 0 mm 1 m/s 754 mmHg 98%

17 Aprilie, Sâmbătă

Timp Temperatura Precipitaţii Vânt Presiune Umiditate
00:00 +4°C° 0 mm 1 m/s 754 mmHg 98%
01:00 +4°C° 0 mm 1 m/s 754 mmHg 98%
02:00 +4°C° 0 mm 1 m/s 754 mmHg 98%
03:00 +4°C° 0 mm 1 m/s 754 mmHg 98%
04:00 +4°C° 0 mm 1 m/s 754 mmHg 98%
05:00 +4°C° 0 mm 2 m/s 754 mmHg 98%
06:00 +4°C° 0 mm 2 m/s 754 mmHg 98%
07:00 +4°C° 0 mm 2 m/s 754 mmHg 98%
08:00 +5°C° 0 mm 2 m/s 754 mmHg 97%
09:00 +4°C° 0 mm 3 m/s 754 mmHg 96%
10:00 +4°C° 0 mm 3 m/s 754 mmHg 96%
11:00 +6°C° 0 mm 4 m/s 754 mmHg 90%
12:00 +7°C° 0 mm 4 m/s 754 mmHg 85%
13:00 +8°C° 0 mm 4 m/s 754 mmHg 79%
14:00 +8°C° 0 mm 5 m/s 754 mmHg 80%
15:00 +8°C° 0 mm 5 m/s 754 mmHg 80%
16:00 +8°C° 0 mm 5 m/s 754 mmHg 80%
17:00 +8°C° 0 mm 5 m/s 754 mmHg 81%
18:00 +7°C° 0 mm 4 m/s 754 mmHg 83%
19:00 +7°C° 0 mm 4 m/s 754 mmHg 84%
20:00 +6°C° 0 mm 4 m/s 754 mmHg 86%
21:00 +7°C° 0 mm 3 m/s 755 mmHg 88%
22:00 +5°C° 0 mm 3 m/s 755 mmHg 90%
23:00 +5°C° 0 mm 3 m/s 755 mmHg 89%
Arată mai mult

Formular de consimțământ

Meteoprog și furnizorii noștri de servicii pot stoca și accesa date personale, precum cookies, identificatori de dispozitiv sau alte tehnologii similare pe dispozitivul dumneavoastră și procesa astfel de date pentru a personaliza conținutul și reclamele, dar și pentru a oferi caracteristici de social media și pentru a analiza traficul.

  • Stocarea și/sau accesarea informațiilor pe dispozitivul dumneavoastră

    Cookies, identificatori de dispozitiv sau alte informații pot fi stocate sau accesate pe dispozitiv în scopurile indicate mai sus.

  • Reclame și conținut personalizat, evaluarea reclamelor și a conținutului, informații despre audiențe și dezvoltarea produselor

    Reclamele și conținutul pot fi personalizate pe baza unui profil. Pot fi adăugate date suplimentare pentru a personaliza mai bine reclamele și conținutul. Performanța reclamelor și conținutului poate fi măsurată. Pot fi obținute informații despre utilizatorii care au văzut reclamele și conținutul. Aceste date pot fi utilizate pentru a dezvolta sau îmbunătăți experiența utilizatorilor, sistemele și software-ul.

Dând clic pe ‘Sunt de acord’, permiteți utilizarea cookie-urilor menționate, a identificatorilor de dispozitiv, balizelor web sau altor tehnologii similare. Setările pot fi modificate din browser-ul dispozitivului dumneavoastră.

În anumite scopuri, interesele legitime pot prima asupra consimțământului. Puteți citi mai multe informații în acest sens în Politica privind Confidențialitatea Datelor și Cookie.